Simultaneous Nadir Overpasses (SNOs) Predictions

Prediction of SNOs between NPP and METOP-C Satellite Orbit:

Table of predicted SNOs for the next 14.0 days since TLE Epoch: 1/24/2024
Index Date (NPP) Time (NPP) Lat,Lon (NPP) SZA (NPP ) Date (METOP-C) Time (METOP-C) Lat,Lon (METOP-C) SZA (METOP-C ) Distance(km) Time Diff (sec)
1 02/06/2024 22:57:26 73.58,-174.23 89.46 02/06/2024 22:58:32 73.52,-171.26 89.22 93.53 66
2 02/06/2024 23:48:08 -73.47, -6.65 90.68 02/06/2024 23:49:16 -73.43, -4.15 90.88 79.18 68
3 02/07/2024 00:38:50 73.29, 161.07 89.11 02/07/2024 00:39:59 73.24, 162.78 88.95 54.95 69
4 02/07/2024 01:29:32 -73.17, -31.36 91.03 02/07/2024 01:30:43 -73.15, -30.10 91.14 40.76 71
5 02/07/2024 02:20:14 72.99, 136.34 88.76 02/07/2024 02:21:27 72.92, 136.73 88.64 15.35 73



Historial Predications of SNOs between NPP and METOP-C
